Weather History for KNUQ - August, 2007

Change the Weather History Date:

Tuesday, August 21, 2007

  Actual Average Record
Temperature  
Mean Temperature 72 °F 68 °F  
Max Temperature 82 °F 78 °F 87 °F (1993)
Min Temperature 62 °F 59 °F 51 °F (1954)
Degree Days  
Heating Degree Days 0    
Month to date heating degree days  
Since 1 June heating degree days  
Since 1 July heating degree days  
Cooling Degree Days 7    
Month to date cooling degree days  
Year to date cooling degree days  
Since 1 June cooling degree days  
Growing Degree Days 22 (Base 50)    
Moisture  
Dew Point 59 °F    
Average Humidity 70    
Maximum Humidity 86    
Minimum Humidity 45    
Precipitation  
Precipitation 0.00 in 0.01 in 0.01 in (1968)
Month to date precipitation 0.01  
Year to date precipitation 9.66  
Since 1 July precipitation 0.03  
Sea Level Pressure  
Sea Level Pressure 29.92 in    
Wind  
Wind Speed 5 mph (North)    
Max Wind Speed 15 mph    
Max Gust Speed 22 mph    
Visibility 10 miles    
Events      
T = Trace of Precipitation, MM = Missing Value Source: NWS Daily Summary

Daily Weather History Graph

Daily Weather History Graph

Search for Another Location

Airport or City:

Trip Planner

Search our weather history database for the weather conditions in past years. The results will help you decide how hot, cold, wet, or windy it might be!

Date:

Astronomy

Aug. 21, 2007 Rise Set
Actual Time 6:29 AM PDT 7:52 PM PDT
Civil Twilight 6:01 AM PDT 8:20 PM PDT
Nautical Twilight 5:28 AM PDT 8:52 PM PDT
Astronomical Twilight 4:54 AM PDT 9:27 PM PDT
Moon 3:05 PM PDT (8/21) No Moon Set
Length of Visible Light 14h 18m
Length of Day
13h 23m
First Quarter, 58% of the Moon is Illuminated
Aug 21
First Quarter
Aug 28
Full
Sep 3
Last Quarter
Sep 11
New
Sep 19
First Quarter

Hourly Weather History & Observations

Time (PDT) Temp. Heat Index Dew Point Humidity Pressure Visibility Wind Dir Wind Speed Gust Speed Precip Events Conditions
12:56 AM 64.0 °F - 57.9 °F 80% 29.99 in 10.0 mi NNE 4.6 mph - N/A   Clear
1:56 AM 63.0 °F - 57.9 °F 84% 29.97 in 10.0 mi North 5.8 mph - N/A   Clear
2:56 AM 63.0 °F - 57.9 °F 84% 29.97 in 10.0 mi North 3.5 mph - N/A   Clear
3:56 AM 62.1 °F - 57.9 °F 86% 29.97 in 10.0 mi Calm Calm - N/A   Clear
4:56 AM 62.1 °F - 57.0 °F 84% 29.96 in 10.0 mi Calm Calm - N/A   Clear
5:56 AM 62.1 °F - 57.9 °F 86% 29.96 in 10.0 mi Calm Calm - N/A   Clear
6:56 AM 63.0 °F - 57.9 °F 84% 29.97 in 10.0 mi Calm Calm - N/A   Clear
7:56 AM 64.9 °F - 59.0 °F 81% 29.97 in 10.0 mi Calm Calm - N/A   Clear
8:56 AM 68.0 °F - 59.0 °F 73% 29.98 in 10.0 mi Calm Calm - N/A   Clear
9:56 AM 71.1 °F - 59.0 °F 66% 29.97 in 10.0 mi North 4.6 mph - N/A   Clear
10:56 AM 73.9 °F - 60.1 °F 62% 29.97 in 10.0 mi NNW 3.5 mph - N/A   Clear
11:56 AM 78.1 °F - 60.1 °F 54% 29.95 in 10.0 mi North 6.9 mph - N/A   Clear
12:56 PM 81.0 °F 81.1 °F 57.9 °F 45% 29.94 in 10.0 mi North 8.1 mph - N/A   Clear
1:56 PM 82.0 °F 82.1 °F 59.0 °F 45% 29.91 in 10.0 mi North 10.4 mph - N/A   Clear
2:56 PM 80.1 °F 80.6 °F 57.9 °F 47% 29.89 in 10.0 mi NNW 15.0 mph - N/A   Clear
3:56 PM 78.1 °F - 61.0 °F 56% 29.87 in 10.0 mi NNW 13.8 mph 21.9 mph N/A   Clear
4:56 PM 78.1 °F - 62.1 °F 58% 29.86 in 10.0 mi NNW 15.0 mph - N/A   Clear
5:56 PM 77.0 °F - 62.1 °F 60% 29.86 in 10.0 mi NNW 12.7 mph 18.4 mph N/A   Clear
6:56 PM 73.0 °F - 62.1 °F 68% 29.87 in 10.0 mi North 12.7 mph - N/A   Clear
7:56 PM 71.1 °F - 60.1 °F 68% 29.87 in 10.0 mi North 11.5 mph - N/A   Clear
8:56 PM 68.0 °F - 60.1 °F 76% 29.88 in 10.0 mi North 8.1 mph - N/A   Clear
9:56 PM 66.9 °F - 59.0 °F 76% 29.88 in 10.0 mi NNE 4.6 mph - N/A   Clear
10:56 PM 64.9 °F - 57.9 °F 78% 29.87 in 10.0 mi NE 5.8 mph - N/A   Clear
11:56 PM 64.0 °F - 57.0 °F 78% 29.85 in 10.0 mi NNE 3.5 mph - N/A   Clear